Location: Austin
(30.3000°N, 97.7500°W)
Time: 10:27:34
(UTC-05:00)

USA 238 - Pass Details

Date: 26 May 2023
Orbit: 943 x 1270 km, 63.4° (Epoch: 22 May)

Event Time Altitude Azimuth Distance (km) Brightness Sun altitude
Rises 21:13:18 0° 185° (S) 3,589 6.2 -10.0°
Reaches altitude 10° 21:15:59 10° 176° (S) 2,654 5.4 -10.5°
Maximum altitude 21:21:34 37° 111° (ESE) 1,466 4.0 -11.5°
Drops below altitude 10° 21:27:22 10° 47° (NE) 2,773 5.8 -12.6°
Sets 21:30:13 0° 39° (NE) 3,771 6.5 -13.1°
